Погода в Кежемском

Россия / Иркутская область     56°33′12″N   102°26′48″E
темп.,
°C
ветер,
м/с
пор.,
м/с
влажн.,
%
обл.,
%
осадки,
мм/ч
давл.,
гПа
погр.,
м
24 мая, вт
вт2423:00+12юв006194 0.0 102010
02:00+10ю116799 0.0 102210
05:00+10ю116689 0.0 102322
08:00+12ю126292 0.0 1024101
11:00+17ююз234296 0.0 1024692
14:00+21ююз32306 0.0 10222347
17:00+21ю33296 0.0 10212197
20:00+17ю24444 0.0 1021121
25 мая, ср
ср2523:00+12юз115132 0.0 102110
02:00+11юз11545 0.0 102110
05:00+9ю115933 0.0 102110
08:00+15ююз234587 0.0 1020213
11:00+21ююз343147 0.0 10181140
14:00+23ююз33235 0.0 10152150
17:00+23ююз33231 0.0 10122186
20:00+19ю2541100 0.0 101199
26 мая, чт
чт2623:00+13юз224396 0.0 100912
02:00+12ссз310665 0.0 1009274
05:00+11ссз41278100 0.1 1010838
08:00+13ссз487012 0.1 1011807
11:00+15сз576644 0.7 10111228
14:00+16сз574823 1.3 10111812
17:00+15ссз585023 0.2 10111640
20:00+13с376391 0.4 10121127
27 мая, пт
пт2723:00+8ссв117868 0.0 101413
02:00+5св26931 0.0 1015139
05:00+4св24960 0.0 101590
08:00+9всв346484 0.0 1014645
11:00+13всв344392 0.0 10131844
14:00+15св443298 0.0 10112528
17:00+15св452994 0.0 10102419
20:00+13св573982 0.0 10111417
28 мая, сб
сб2823:00+6св5115866 0.0 1014642
02:00+3ссв39734 0.0 1016347
05:00+1ссв28800 0.0 1018245
08:00+7ссв47495 0.0 10181363
11:00+10ссв4634100 0.0 10182421
14:00+13ссв4624100 0.0 10172933
17:00+14ссв4623100 0.0 10162906
20:00+12ссв363291 0.0 1017495